This demonstration page uses our WeatherBlox Daily Observations layout. Learn more.

Left ArrowRight Arrow

Hourly Observations for March 14, 2022

Temp ( °F °C ) Dew Point ( °F °C ) Humidity (%) Winds ( mph kmh ) Pressure ( in mb ) Visibility ( mi km ) Precip ( " mm )
12:15 am 00:15 Clear 50 10 19 -7 30 30 S 7 11 29.74 1007 10 16 0.00 0.00
12:35 am 00:35 Clear 48 9 18 -8 29 29 S 7 11 29.74 1007 10 16 0.00 0.00
12:55 am 00:55 Clear 48 9 18 -8 29 29 SSE 7 11 29.74 1007 10 16 0.00 0.00
1:15 am 01:15 Clear 48 9 18 -8 29 29 S 5 7 29.74 1007 10 16 0.00 0.00
1:35 am 01:35 Clear 48 9 19 -7 32 32 S 5 7 29.76 1008 10 16 0.00 0.00
1:55 am 01:55 Clear 45 7 19 -7 37 37 W 8 13 29.81 1009 10 16 0.00 0.00
2:15 am 02:15 Partly Cloudy 43 6 21 -6 42 42 NNW 7 11 29.83 1010 10 16 0.00 0.00
2:35 am 02:35 Partly Cloudy 39 4 21 -6 48 48 NNE 6 9 29.83 1010 10 16 0.00 0.00
2:55 am 02:55 Partly Cloudy 37 3 23 -5 56 56 N 8 13 29.85 1011 10 16 0.00 0.00
3:15 am 03:15 Clear 37 3 21 -6 52 52 Calm 29.84 1010 10 16 0.00 0.00
3:35 am 03:35 Clear 37 3 21 -6 52 52 Calm 29.83 1010 10 16 0.00 0.00
3:55 am 03:55 Clear 36 2 23 -5 60 60 NW 5 7 29.83 1010 10 16 0.00 0.00
4:15 am 04:15 Clear 36 2 21 -6 56 56 NW 6 9 29.83 1010 10 16 0.00 0.00
4:35 am 04:35 Clear 34 1 23 -5 65 65 NW 7 11 29.85 1011 10 16 0.00 0.00
4:55 am 04:55 Clear 34 1 21 -6 60 60 N 8 13 29.86 1011 10 16 0.00 0.00
5:15 am 05:15 Clear 37 3 27 -3 65 65 N 10 17 29.84 1010 10 16 0.00 0.00
5:35 am 05:35 Clear 37 3 28 -2 70 70 N 8 13 29.85 1011 10 16 0.00 0.00
5:55 am 05:55 Clear 37 3 28 -2 70 70 NNE 7 11 29.85 1011 10 16 0.00 0.00
6:15 am 06:15 Clear 37 3 28 -2 70 70 N 8 13 29.86 1011 10 16 0.00 0.00
6:35 am 06:35 Clear 41 5 30 -1 66 66 NNE 8 13 29.85 1011 10 16 0.00 0.00
6:55 am 06:55 Clear 39 4 28 -2 65 65 NNE 8 13 29.88 1012 10 16 0.00 0.00
7:15 am 07:15 Clear 37 3 28 -2 70 70 N 7 11 29.90 1012 10 16 0.00 0.00
7:35 am 07:35 Clear 37 3 30 -1 75 75 N 7 11 29.91 1013 10 16 0.00 0.00
7:55 am 07:55 Sunny 41 5 32 0 70 70 N 7 11 29.92 1013 10 16 0.00 0.00
8:15 am 08:15 Partly Cloudy 43 6 34 1 71 71 N 15 24 29.93 1013 10 16 0.00 0.00
8:35 am 08:35 Partly Cloudy 45 7 34 1 66 66 N 16 26 29.94 1014 10 16 0.00 0.00
8:55 am 08:55 Partly Cloudy 45 7 34 1 66 66 N 20 31 29.94 1014 10 16 0.00 0.00
9:15 am 09:15 Partly Cloudy 45 7 32 0 61 61 N 28 44 29.96 1015 10 16 0.00 0.00
9:35 am 09:35 Partly Cloudy 45 7 32 0 61 61 N 26 43 29.98 1015 10 16 0.00 0.00
9:55 am 09:55 Sunny 43 6 30 -1 61 61 N 25 41 30.01 1016 10 16 0.00 0.00
10:15 am 10:15 Sunny 43 6 30 -1 61 61 N 22 35 30.03 1017 10 16 0.00 0.00
10:35 am 10:35 Sunny 43 6 30 -1 61 61 N 24 39 30.04 1017 10 16 0.00 0.00
10:55 am 10:55 Sunny 45 7 30 -1 57 57 NNE 29 46 30.04 1017 10 16 0.00 0.00
11:15 am 11:15 Sunny 45 7 30 -1 57 57 N 24 39 30.06 1018 10 16 0.00 0.00
11:35 am 11:35 Sunny 45 7 30 -1 57 57 N 23 37 30.07 1018 10 16 0.00 0.00
11:55 am 11:55 Sunny 45 7 30 -1 57 57 NNE 25 41 30.08 1019 10 16 0.00 0.00
12:15 pm 12:15 Sunny 45 7 30 -1 57 57 N 23 37 30.09 1019 10 16 0.00 0.00
12:35 pm 12:35 Partly Cloudy 46 8 30 -1 53 53 N 24 39 30.09 1019 10 16 0.00 0.00
12:55 pm 12:55 Partly Cloudy 48 9 30 -1 50 50 N 24 39 30.08 1019 10 16 0.00 0.00
1:15 pm 13:15 Partly Cloudy 48 9 28 -2 46 46 N 25 41 30.08 1019 10 16 0.00 0.00
1:35 pm 13:35 Partly Cloudy 54 12 30 -1 41 41 NNE 23 37 30.05 1018 10 16 0.00 0.00
1:55 pm 13:55 Partly Cloudy 52 11 30 -1 44 44 N 28 44 30.07 1018 10 16 0.00 0.00
2:15 pm 14:15 Partly Cloudy 55 13 30 -1 38 38 NNE 22 35 30.05 1018 10 16 0.00 0.00
2:35 pm 14:35 Mostly Cloudy 54 12 28 -2 38 38 NNE 20 31 30.06 1018 10 16 0.00 0.00
2:55 pm 14:55 Cloudy 55 13 30 -1 38 38 N 26 43 30.05 1018 10 16 0.00 0.00
3:15 pm 15:15 Cloudy 54 12 28 -2 38 38 N 23 37 30.06 1018 10 16 0.00 0.00
3:35 pm 15:35 Mostly Cloudy 54 12 30 -1 41 41 N 24 39 30.07 1018 10 16 0.00 0.00
3:55 pm 15:55 Mostly Cloudy 55 13 30 -1 38 38 NNE 23 37 30.07 1018 10 16 0.00 0.00
4:15 pm 16:15 Cloudy 55 13 28 -2 36 36 N 24 39 30.08 1019 10 16 0.00 0.00
4:35 pm 16:35 Mostly Cloudy 55 13 28 -2 36 36 N 23 37 30.09 1019 10 16 0.00 0.00
4:55 pm 16:55 Partly Cloudy 55 13 28 -2 36 36 NNE 21 33 30.10 1019 10 16 0.00 0.00
5:15 pm 17:15 Sunny 54 12 28 -2 38 38 N 24 39 30.12 1020 10 16 0.00 0.00
5:35 pm 17:35 Sunny 54 12 28 -2 38 38 NNE 22 35 30.13 1020 10 16 0.00 0.00
5:55 pm 17:55 Sunny 54 12 28 -2 38 38 NNE 22 35 30.14 1021 10 16 0.00 0.00
6:15 pm 18:15 Sunny 54 12 28 -2 38 38 NNE 22 35 30.15 1021 10 16 0.00 0.00
6:35 pm 18:35 Sunny 52 11 28 -2 41 41 NNE 17 28 30.17 1022 10 16 0.00 0.00
6:55 pm 18:55 Sunny 50 10 28 -2 43 43 NNE 17 28 30.20 1023 10 16 0.00 0.00
7:15 pm 19:15 Sunny 48 9 28 -2 46 46 NNE 15 24 30.22 1023 10 16 0.00 0.00
7:35 pm 19:35 Sunny 48 9 30 -1 50 50 NE 13 20 30.23 1024 10 16 0.00 0.00
7:55 pm 19:55 Clear 45 7 28 -2 53 53 NE 12 19 30.25 1024 10 16 0.00 0.00
8:15 pm 20:15 Clear 43 6 28 -2 57 57 NE 9 15 30.26 1025 10 16 0.00 0.00
8:35 pm 20:35 Clear 41 5 28 -2 61 61 NE 8 13 30.28 1025 10 16 0.00 0.00
8:55 pm 20:55 Clear 37 3 27 -3 65 65 NNE 8 13 30.31 1026 10 16 0.00 0.00
9:15 pm 21:15 Clear 37 3 27 -3 65 65 NNE 6 9 30.33 1027 10 16 0.00 0.00
9:35 pm 21:35 Clear 37 3 28 -2 70 70 NNE 6 9 30.35 1028 10 16 0.00 0.00
9:55 pm 21:55 Clear 34 1 28 -2 81 81 NNE 9 15 30.38 1029 10 16 0.00 0.00
10:15 pm 22:15 Clear 37 3 28 -2 70 70 NE 6 9 30.36 1028 10 16 0.00 0.00
10:35 pm 22:35 Clear 36 2 27 -3 70 70 Calm 30.37 1028 10 16 0.00 0.00
10:55 pm 22:55 Clear 32 0 25 -4 75 75 NNE 6 9 30.41 1030 10 16 0.00 0.00
11:15 pm 23:15 Clear 32 0 25 -4 75 75 NNE 6 9 30.41 1030 10 16 0.00 0.00
11:35 pm 23:35 Clear 30 -1 25 -4 80 80 NNE 8 13 30.42 1030 10 16 0.00 0.00
11:55 pm 23:55 Clear 30 -1 23 -5 75 75 NNE 8 13 30.41 1030 10 16 0.00 0.00

Powered by AerisWeather